Weather in Livadia

Russia / Republic of Crimea     44°28′17″N   34°08′45″E
temp.,
°C
wind,
m/s
gust,
m/s
humid.,
%
clouds,
%
prec.,
mm/h
press.,
hPa
HPBL,
m
29 june, wed
wed2900:00+20nnw4376100 0.3 101333
03:00+19nne237543 0.3 101333
06:00+20nne577817 0.2 1013108
09:00+21ne587310 0.3 1013279
12:00+22ene577230 0.0 1014432
15:00+22ene446688 0.0 1014364
18:00+23ene345983 0.0 1013136
21:00+21n336419 0.0 101413
30 june, thu
thu3000:00+21nnw44620 0.0 101416
03:00+21nnw55590 0.0 101325
06:00+21nnw55610 0.0 101324
09:00+23ene34600 0.0 1013367
12:00+23ene45700 0.0 1013518
15:00+24ene45670 0.0 1012454
18:00+23ne22702 0.0 101338
21:00+22nnw337680 0.2 101319
1 july, fri
fri100:00+21n337053 0.0 101317
03:00+21n336575 0.0 101316
06:00+21nne126982 0.0 101319
09:00+22ene33588 0.0 1014241
12:00+22se226530 0.1 1014430
15:00+22w226277 0.1 1015162
18:00+23w226213 0.0 1015127
21:00+21wnw33660 0.0 101613
2 july, sat
sat200:00+21nnw44590 0.0 101621
03:00+20nnw44620 0.0 101625
06:00+20n33640 0.0 101729
09:00+21ene56660 0.0 1018480
12:00+21e78680 0.0 1019730
15:00+21ese67630 0.0 1019851
18:00+21se34610 0.0 1020554
21:00+19n33590 0.0 102134
3 july, sun
sun300:00+19nnw44520 0.0 102035
03:00+19nnw44540 0.0 102034
06:00+18nw44560 0.0 102044
09:00+21e23490 0.0 1020358
12:00+21se34550 0.0 1020571
15:00+20sse12610 0.0 1020513
18:00+20wnw01540 0.0 1020249
21:00+20nw33600 0.0 101926